STARLINK-6162, 57131

Orbit data source: Space-Track

STARLINK-6162, 57131 is a payload satellite owned by SpaceX/Seattle (US) in LEO that was launched on Fri, 23 Jun 2023 UTC via an FALCON 9 launch vehicle from the Air Force Eastern Test Range (AFETR). Payload-class satellites include a variety of spacecraft equipped with specific instruments for various scientific and technological missions. These include communications satellites like Starlink; space stations such as the ISS; scientific satellites like the Hubble; Earth observation satellites from companies like Planet Labs, Umbra, and HawkEye 360; GPS; miniature CubeSats for education and research; and military/defense satellites.

Loading next visibility...
Identifier
57131, 2023-090AG
Orbit
LEO
Last TLE update
10 hours ago
Origin
Manufacturer
SpaceX/Seattle
Mission
Operational Commercial Communications
Bus & Motor
STARLINK, Unknown motor
Mass
305 kg wet, ~290 kg dry
Launch date (UTC)
2023-06-23 (2 years ago)
Launch vehicle
FALCON 9
Launch site
Air Force Eastern Test Range (AFETR)
Object type
Payload
Rocket body
Debris
Shape & HBR
Box + 1 Pan, 9 m
Radar Cross Section
11.087 m², Large (>1 m²)

Expand to show TLE details & history

TLE from 10 hours ago
0 STARLINK-6162
1 57131U 23090AG  25187.95924227  .00000020  00000-0  16545-4 0  9991
2 57131  43.0035 157.3327 0001214 278.3077  81.7627 15.02534718112454
Epoch: 2025-07-06T23:01Z
TLE epoch observation values (Epoch: 2025-07-06T23:01:18.532Z)
Latitude
-0.00005°
Longitude
-113.17002°
Altitude
558.741 km
Speed
7.584 km/s
True Right ascension
10h 29m 19s
True Declination
0° 00' 00"
Sunlit
Object was in daylight at epoch
Visualization orbit readout
Latitude
-2.91319°
Longitude
67.58781°
Altitude
559.386 km
Speed
7.583 km/s
Apparent Right ascension
00h 39m 52s
Apparent Declination
-59° 17' 13"
Sunlit
Object is in full shadow
Visualization observer readout
Local Sidereal Time
21:26:34
Azimuth
156.499° SSE
Elevation
-16.93°
Doppler factor
1
Orbital elements
Apogee altitude
561.849 km
Perigee altitude
560.164 km
Semi-major axis
6,939.144 km
Eccentricity
0.00012
Inclination
43.0035°
RAAN
157.3327°
Arg. of periapsis
278.3077°
True anomaly
Unknown
Mean anomaly
81.7627°
Eccentric anomaly
Unknown
Mean motion
3.75478 °/min
Orbital period
95.88 mins
BSTAR
0.000016545
Loading maneuver chart data...
Loading SW <> Apogee altitude chart data...
Loading historical data...
Loading historical data...
Loading historical data...
Loading historical data...
Loading historical data...
Loading historical data...
Loading historical data...

STARLINK-6162 Visibility forecast

Observer location: undefined°, undefined°

Span
Click to sort rows by Start time (UTC) header in descending order
Start Az.
Max El. time (UTC)
Max El. Az.
Max El.
End time (UTC)
End Az.
6 mins2025-07-08 00:44:38.007Z203.395° SW2025-07-08 00:47:38.007Z143.949° SSE27.189°2025-07-08 00:50:38.007Z89.417° E
6 mins2025-07-08 02:25:38.007Z258.675° W2025-07-08 02:27:38.007Z286.808° WNW43.677°2025-07-08 02:31:38.007Z71.035° E
6 mins2025-07-08 04:06:38.007Z292.646° NW2025-07-08 04:08:38.007Z345.758° N39.084°2025-07-08 04:12:38.007Z79.73° E
7 mins2025-07-08 05:46:38.007Z287.092° WNW2025-07-08 05:49:38.007Z240.486° WSW44.757°2025-07-08 05:53:38.007Z112.398° ESE
4 mins2025-07-08 07:28:38.007Z244.747° WSW2025-07-08 07:29:38.007Z225.087° WSW20.91°2025-07-08 07:32:38.007Z170.514° S
|